• în România
  • Lista ţărilor
  • Pe 7 zile
  • Temperatura apei
  • Hartă satelitară
  • Meteo pe hartă
  • Widget-uri
  • user-avatar
    Intrare

    Meteo pe oră la Ondjiwa

    Astăzi, 28 Februarie, Marţi

    Timp Temperatura Precipitaţii Vânt Presiune Umiditate
    00:00 +23°C° 0 mm 2 m/s 665 mmHg 85%
    01:00 +22°C° 0 mm 3 m/s 664 mmHg 84%
    02:00 +22°C° 0,2 mm 3 m/s 664 mmHg 85%
    03:00 +21°C° 0,2 mm 3 m/s 664 mmHg 86%
    04:00 +21°C° 0,2 mm 3 m/s 664 mmHg 88%
    05:00 +21°C° 0,3 mm 3 m/s 664 mmHg 88%
    06:00 +21°C° 0,3 mm 2 m/s 664 mmHg 88%
    07:00 +21°C° 0,3 mm 2 m/s 665 mmHg 88%
    08:00 +23°C° 1,4 mm 2 m/s 665 mmHg 85%
    09:00 +24°C° 1,4 mm 2 m/s 665 mmHg 81%
    10:00 +25°C° 1,4 mm 2 m/s 666 mmHg 78%
    11:00 +25°C° 3,1 mm 2 m/s 665 mmHg 80%
    12:00 +24°C° 3,1 mm 2 m/s 665 mmHg 83%
    13:00 +24°C° 3,1 mm 2 m/s 664 mmHg 85%
    14:00 +24°C° 0,7 mm 2 m/s 664 mmHg 84%
    15:00 +25°C° 0,7 mm 3 m/s 664 mmHg 83%
    16:00 +25°C° 0,7 mm 3 m/s 664 mmHg 82%
    17:00 +24°C° 0,2 mm 3 m/s 664 mmHg 85%
    18:00 +24°C° 0,2 mm 2 m/s 664 mmHg 88%
    19:00 +23°C° 0,2 mm 2 m/s 664 mmHg 91%
    20:00 +23°C° 2,6 mm 2 m/s 664 mmHg 91%
    21:00 +23°C° 2,6 mm 2 m/s 665 mmHg 92%
    22:00 +23°C° 2,6 mm 2 m/s 665 mmHg 92%
    23:00 +21°C° 2,7 mm 2 m/s 665 mmHg 93%

    Mâine, 1 Martie, Miercuri

    Timp Temperatura Precipitaţii Vânt Presiune Umiditate
    00:00 +21°C° 2,7 mm 3 m/s 665 mmHg 93%
    01:00 +21°C° 2,7 mm 3 m/s 665 mmHg 93%
    02:00 +20°C° 0,8 mm 3 m/s 664 mmHg 93%
    03:00 +20°C° 0,8 mm 3 m/s 664 mmHg 93%
    04:00 +20°C° 0,8 mm 3 m/s 664 mmHg 93%
    05:00 +20°C° 0,8 mm 3 m/s 664 mmHg 93%
    06:00 +20°C° 0,8 mm 3 m/s 664 mmHg 94%
    07:00 +20°C° 0,8 mm 3 m/s 665 mmHg 94%
    08:00 +20°C° 1,1 mm 3 m/s 665 mmHg 93%
    09:00 +20°C° 1,1 mm 3 m/s 665 mmHg 92%
    10:00 +21°C° 1,1 mm 3 m/s 666 mmHg 91%
    11:00 +21°C° 0,9 mm 3 m/s 665 mmHg 88%
    12:00 +22°C° 0,9 mm 3 m/s 665 mmHg 85%
    13:00 +23°C° 0,9 mm 4 m/s 665 mmHg 82%
    14:00 +23°C° 0,2 mm 4 m/s 665 mmHg 79%
    15:00 +25°C° 0,2 mm 4 m/s 664 mmHg 77%
    16:00 +25°C° 0,2 mm 4 m/s 664 mmHg 74%
    17:00 +23°C° 0,1 mm 4 m/s 664 mmHg 78%
    18:00 +22°C° 0,1 mm 3 m/s 664 mmHg 82%
    19:00 +21°C° 0,1 mm 3 m/s 664 mmHg 86%
    20:00 +21°C° 0 mm 2 m/s 665 mmHg 87%
    21:00 +20°C° 0 mm 2 m/s 665 mmHg 88%
    22:00 +20°C° 0 mm 2 m/s 666 mmHg 89%
    23:00 +20°C° 0,1 mm 2 m/s 665 mmHg 90%

    Poimâine, 2 Martie, Joi

    Timp Temperatura Precipitaţii Vânt Presiune Umiditate
    00:00 +19°C° 0,1 mm 2 m/s 665 mmHg 90%
    01:00 +19°C° 0,1 mm 2 m/s 665 mmHg 90%
    02:00 +19°C° 0 mm 2 m/s 665 mmHg 90%
    03:00 +19°C° 0 mm 2 m/s 664 mmHg 90%
    04:00 +19°C° 0 mm 2 m/s 664 mmHg 90%
    05:00 +19°C° 0 mm 2 m/s 665 mmHg 89%
    06:00 +19°C° 0 mm 2 m/s 665 mmHg 88%
    07:00 +20°C° 0 mm 2 m/s 666 mmHg 86%
    08:00 +21°C° 0 mm 2 m/s 666 mmHg 78%
    09:00 +24°C° 0 mm 2 m/s 667 mmHg 71%
    10:00 +26°C° 0 mm 2 m/s 667 mmHg 63%
    11:00 +27°C° 0 mm 2 m/s 667 mmHg 57%
    12:00 +28°C° 0 mm 2 m/s 667 mmHg 52%
    13:00 +30°C° 0 mm 2 m/s 666 mmHg 47%
    14:00 +30°C° 0 mm 2 m/s 665 mmHg 47%
    15:00 +30°C° 0 mm 2 m/s 665 mmHg 47%
    16:00 +30°C° 0 mm 2 m/s 664 mmHg 47%
    17:00 +28°C° 0 mm 2 m/s 664 mmHg 52%
    18:00 +27°C° 0 mm 1 m/s 664 mmHg 58%
    19:00 +25°C° 0 mm 1 m/s 664 mmHg 63%
    20:00 +25°C° 0 mm 1 m/s 665 mmHg 64%
    21:00 +25°C° 0 mm 1 m/s 665 mmHg 65%
    22:00 +24°C° 0 mm 2 m/s 666 mmHg 67%
    23:00 +24°C° 0 mm 2 m/s 665 mmHg 68%

    3 Martie, Vineri

    Timp Temperatura Precipitaţii Vânt Presiune Umiditate
    00:00 +22°C° 0 mm 3 m/s 665 mmHg 69%
    01:00 +22°C° 0 mm 3 m/s 665 mmHg 71%
    02:00 +21°C° 0 mm 3 m/s 665 mmHg 73%
    03:00 +21°C° 0 mm 2 m/s 665 mmHg 74%
    04:00 +21°C° 0 mm 2 m/s 665 mmHg 76%
    05:00 +21°C° 0 mm 2 m/s 665 mmHg 77%
    06:00 +21°C° 0 mm 2 m/s 665 mmHg 78%
    07:00 +21°C° 0 mm 2 m/s 666 mmHg 79%
    08:00 +23°C° 0,1 mm 2 m/s 666 mmHg 73%
    09:00 +25°C° 0,1 mm 2 m/s 666 mmHg 67%
    10:00 +26°C° 0,1 mm 3 m/s 667 mmHg 61%
    11:00 +28°C° 0,1 mm 3 m/s 666 mmHg 56%
    12:00 +29°C° 0,1 mm 3 m/s 666 mmHg 51%
    13:00 +30°C° 0,1 mm 2 m/s 665 mmHg 45%
    14:00 +30°C° 0,3 mm 3 m/s 665 mmHg 46%
    15:00 +30°C° 0,3 mm 3 m/s 664 mmHg 47%
    16:00 +30°C° 0,3 mm 3 m/s 663 mmHg 48%
    17:00 +29°C° 0,2 mm 2 m/s 664 mmHg 53%
    18:00 +27°C° 0,2 mm 2 m/s 664 mmHg 58%
    19:00 +26°C° 0,2 mm 1 m/s 664 mmHg 63%
    20:00 +25°C° 0,5 mm 2 m/s 664 mmHg 67%
    21:00 +24°C° 0,5 mm 2 m/s 664 mmHg 71%
    22:00 +22°C° 0,5 mm 3 m/s 665 mmHg 75%
    23:00 +22°C° 0,2 mm 3 m/s 665 mmHg 78%

    4 Martie, Sâmbătă

    Timp Temperatura Precipitaţii Vânt Presiune Umiditate
    00:00 +22°C° 0,2 mm 3 m/s 664 mmHg 81%
    01:00 +21°C° 0,2 mm 2 m/s 664 mmHg 83%
    02:00 +21°C° 0,1 mm 2 m/s 664 mmHg 85%
    03:00 +21°C° 0,1 mm 2 m/s 664 mmHg 87%
    04:00 +22°C° 0,1 mm 1 m/s 664 mmHg 89%
    05:00 +22°C° 0 mm 1 m/s 664 mmHg 89%
    06:00 +22°C° 0 mm 1 m/s 664 mmHg 89%
    07:00 +22°C° 0 mm 1 m/s 665 mmHg 89%
    08:00 +23°C° 0,1 mm 1 m/s 665 mmHg 81%
    09:00 +25°C° 0,1 mm 1 m/s 665 mmHg 74%
    10:00 +26°C° 0,1 mm 1 m/s 666 mmHg 67%
    11:00 +28°C° 0,1 mm 2 m/s 665 mmHg 60%
    12:00 +29°C° 0,1 mm 2 m/s 665 mmHg 53%
    13:00 +30°C° 0,1 mm 2 m/s 665 mmHg 47%
    14:00 +30°C° 0,1 mm 2 m/s 664 mmHg 47%
    15:00 +30°C° 0,1 mm 3 m/s 664 mmHg 47%
    16:00 +30°C° 0,1 mm 3 m/s 663 mmHg 47%
    17:00 +29°C° 0 mm 2 m/s 664 mmHg 51%
    18:00 +27°C° 0 mm 2 m/s 664 mmHg 56%
    19:00 +26°C° 0 mm 2 m/s 664 mmHg 60%
    20:00 +25°C° 0 mm 2 m/s 664 mmHg 62%
    21:00 +25°C° 0 mm 2 m/s 665 mmHg 65%
    22:00 +24°C° 0 mm 2 m/s 665 mmHg 67%
    23:00 +24°C° 0 mm 2 m/s 665 mmHg 71%

    5 Martie, Duminică

    Timp Temperatura Precipitaţii Vânt Presiune Umiditate
    00:00 +23°C° 0 mm 2 m/s 664 mmHg 74%
    01:00 +21°C° 0 mm 2 m/s 664 mmHg 78%
    02:00 +21°C° 0 mm 2 m/s 664 mmHg 81%
    03:00 +21°C° 0 mm 2 m/s 664 mmHg 84%
    04:00 +21°C° 0 mm 1 m/s 664 mmHg 87%
    05:00 +21°C° 0 mm 1 m/s 665 mmHg 86%
    06:00 +22°C° 0 mm 1 m/s 665 mmHg 84%
    07:00 +22°C° 0 mm 1 m/s 666 mmHg 83%
    08:00 +24°C° 0 mm 1 m/s 666 mmHg 74%
    09:00 +27°C° 0 mm 1 m/s 667 mmHg 64%
    10:00 +29°C° 0 mm 1 m/s 667 mmHg 54%
    11:00 +30°C° 0,1 mm 1 m/s 666 mmHg 51%
    12:00 +31°C° 0,1 mm 1 m/s 666 mmHg 47%
    13:00 +31°C° 0,1 mm 1 m/s 665 mmHg 44%
    14:00 +31°C° 0,1 mm 2 m/s 665 mmHg 43%
    15:00 +32°C° 0,1 mm 2 m/s 665 mmHg 42%
    16:00 +32°C° 0,1 mm 2 m/s 664 mmHg 41%
    17:00 +30°C° 0,5 mm 2 m/s 664 mmHg 49%
    18:00 +28°C° 0,5 mm 2 m/s 664 mmHg 56%
    19:00 +27°C° 0,5 mm 1 m/s 665 mmHg 64%
    20:00 +26°C° 0 mm 2 m/s 665 mmHg 66%
    21:00 +26°C° 0 mm 2 m/s 665 mmHg 69%
    22:00 +25°C° 0 mm 2 m/s 666 mmHg 71%
    23:00 +25°C° 0 mm 2 m/s 665 mmHg 74%
    Arată mai mult